Location: Skanderborg
(56.0313°N, 9.9317°E)
Time: 00:06:08
(UTC+00:00)

SL-4 R/B - Pass Details

Date: 15 August 2020
Orbit: 428 x 665 km, 51.6° (Epoch: 23 September)

Event Time Altitude Azimuth Distance (km) Brightness Sun altitude
Rises 19:57:39 0° 253° (WSW) 2,699 6.1 -8.0°
Reaches altitude 10° 20:00:02 10° 247° (WSW) 1,764 5.0 -8.3°
Maximum altitude 20:03:48 42° 176° (S) 716 2.3 -8.7°
Drops below altitude 10° 20:07:18 10° 104° (ESE) 1,640 3.9 -9.1°
Enters shadow 20:07:20 10° 104° (ESE) 1,652 3.9 -9.1°
